GW5139 Weather Reports


time (UTC)temp
F
wind
direction
speed
knots
gust
knots
rain 1hr
in
rain 24hr
in
rain mn
in
humidity
%
barometer
mb
20260504110549 48 147 0.0 0.0 0.00 0.00 0.00 78 1014.7
20260504100510 49 101 0.0 0.0 0.00 0.00 0.00 71 1014.8
20260504081903 50 235 0.0 0.9 0.00 0.00 0.00 60 1015.5
20260504081400 50 223 0.0 1.7 0.00 0.00 0.00 59 1015.5
20260504080856 50 241 0.9 1.7 0.00 0.00 0.00 58 1015.6
20260504080353 50 225 0.0 0.9 0.00 0.00 0.00 58 1015.5
20260504070320 47 142 0.0 0.0 0.00 0.00 0.00 72 1015.7
20260504060241 45 111 0.0 0.0 0.00 0.00 0.00 79 1016.0
20260504050709 46 111 0.0 0.0 0.00 0.00 0.00 83 1016.2
20260504050206 46 111 0.0 0.0 0.00 0.00 0.00 81 1016.3
20260504045704 46 111 0.0 0.0 0.00 0.00 0.00 80 1016.0
20260504045203 47 111 0.0 0.0 0.00 0.00 0.00 75 1016.0
20260504044702 47 111 0.0 0.0 0.00 0.00 0.00 72 1016.3
20260504044158 48 112 0.0 0.0 0.00 0.00 0.00 67 1016.3
20260504043655 48 112 0.0 0.0 0.00 0.00 0.00 62 1016.2
20260504043152 48 111 0.0 0.0 0.00 0.00 0.00 59 1016.2
20260504042650 47 110 0.0 0.0 0.00 0.00 0.00 71 1016.2
20260504042146 47 110 0.0 0.0 0.00 0.00 0.00 72 1016.3
20260504041642 47 150 0.0 0.0 0.00 0.00 0.00 66 1016.4
20260504041138 47 105 0.0 0.0 0.00 0.00 0.00 69 1016.5
20260504040635 46 106 0.0 0.0 0.00 0.00 0.00 69 1016.4
20260504040132 46 105 0.0 0.0 0.00 0.00 0.00 76 1016.2
20260504035629 45 105 0.0 0.0 0.00 0.00 0.00 75 1016.4
20260504035125 46 105 0.0 0.0 0.00 0.00 0.00 72 1016.3
20260504034624 46 106 0.0 0.0 0.00 0.00 0.00 69 1016.5
20260504034120 45 106 0.0 0.0 0.00 0.00 0.00 68 1016.3
20260504033618 45 106 0.0 0.0 0.00 0.00 0.00 64 1016.4
20260504033115 44 105 0.0 0.0 0.00 0.00 0.00 72 1016.4
20260504032612 44 105 0.0 0.0 0.00 0.00 0.00 69 1016.4
20260504032109 44 106 0.0 0.0 0.00 0.00 0.00 74 1016.5
20260504031606 44 106 0.0 0.0 0.00 0.00 0.00 71 1016.6
20260504031102 44 106 0.0 0.0 0.00 0.00 0.00 68 1016.4
20260504030559 44 106 0.0 0.0 0.00 0.00 0.00 67 1016.5
20260504030055 44 106 0.0 0.0 0.00 0.00 0.00 70 1016.3
20260504025553 44 106 0.0 0.0 0.00 0.00 0.00 71 1016.6
20260504025049 44 106 0.0 0.0 0.00 0.00 0.00 68 1016.7
20260504024547 45 106 0.0 0.0 0.00 0.00 0.00 65 1016.6
20260504024043 45 106 0.0 0.0 0.00 0.00 0.00 64 1016.8
20260504023540 43 106 0.0 0.0 0.00 0.00 0.00 65 1016.9
20260504023036 44 105 0.0 0.0 0.00 0.00 0.00 77 1016.5
20260504022531 44 105 0.0 0.0 0.00 0.00 0.00 74 1016.7
20260504022028 45 106 0.0 0.0 0.00 0.00 0.00 69 1016.6
20260504021526 45 106 0.0 0.0 0.00 0.00 0.00 68 1016.7
20260504021023 44 105 0.0 0.0 0.00 0.00 0.00 71 1016.8
20260504020520 45 106 0.0 0.0 0.00 0.00 0.00 72 1016.5
20260504020016 45 106 0.0 0.0 0.00 0.00 0.00 69 1016.7
20260504015513 46 106 0.0 0.0 0.00 0.00 0.00 66 1016.5
20260504015008 46 106 0.0 0.0 0.00 0.00 0.00 65 1016.5
20260504014504 47 106 0.0 0.0 0.00 0.00 0.00 61 1016.6
20260504014002 47 106 0.0 0.0 0.00 0.00 0.00 57 1016.7
20260504013500 47 105 0.0 0.0 0.00 0.00 0.00 64 1016.7
20260504012955 49 106 0.0 0.0 0.00 0.00 0.00 61 1016.6
20260504012454 49 106 0.0 0.0 0.00 0.00 0.00 52 1016.5
20260504011952 49 105 0.0 0.0 0.00 0.00 0.00 56 1016.7
20260504011447 49 109 0.0 0.0 0.00 0.00 0.00 55 1016.7
20260504010944 50 110 0.0 0.0 0.00 0.00 0.00 52 1016.6
20260504010440 50 115 0.9 0.9 0.00 0.00 0.00 53 1016.7
20260504005936 50 115 0.9 0.9 0.00 0.00 0.00 53 1016.7
20260504005433 51 127 0.0 0.0 0.00 0.00 0.00 52 1016.6
20260504004930 51 130 0.0 0.0 0.00 0.00 0.00 48 1016.5
20260504004428 52 130 0.0 0.0 0.00 0.00 0.00 46 1016.3
20260504003925 52 130 0.0 0.0 0.00 0.00 0.00 45 1016.3
20260504003421 52 130 0.0 0.0 0.00 0.00 0.00 44 1016.3
20260504002918 53 177 0.0 0.0 0.00 0.00 0.00 43 1016.0
20260504002415 53 203 0.0 0.0 0.00 0.00 0.00 43 1016.4
20260504001912 53 219 0.0 0.0 0.00 0.00 0.00 44 1016.4
20260504001410 53 273 0.9 0.9 0.00 0.00 0.00 43 1016.3
20260504000906 54 189 0.0 0.0 0.00 0.00 0.00 43 1016.4
20260504000403 54 235 0.0 2.6 0.00 0.00 0.00 42 1016.4
20260503235901 54 244 0.0 0.9 0.00 0.00 0.00 41 1016.4
20260503235359 55 248 0.0 1.7 0.00 0.00 0.00 44 1016.3
20260503234855 55 272 0.9 3.5 0.00 0.00 0.00 41 1016.5
20260503234353 55 241 0.0 0.0 0.00 0.00 0.00 41 1016.4
20260503233851 55 260 0.0 0.0 0.00 0.00 0.00 41 1016.4
20260503233347 56 244 0.0 1.7 0.00 0.00 0.00 41 1016.6
20260503232843 56 251 3.5 6.1 0.00 0.00 0.00 39 1016.6
20260503232341 56 253 2.6 3.5 0.00 0.00 0.00 39 1016.6
20260503231839 56 211 1.7 5.2 0.00 0.00 0.00 39 1016.9
20260503231335 56 274 2.6 5.2 0.00 0.00 0.00 40 1016.8
20260503230831 57 242 1.7 5.2 0.00 0.00 0.00 40 1016.9
20260503230329 57 278 4.3 7.0 0.00 0.00 0.00 37 1016.9
20260503225826 58 256 1.7 5.2 0.00 0.00 0.00 38 1017.0
20260503225322 58 305 2.6 3.5 0.00 0.00 0.00 39 1017.2
20260503224818 59 288 2.6 5.2 0.00 0.00 0.00 36 1017.2
20260503224315 59 278 2.6 6.1 0.00 0.00 0.00 37 1017.1
20260503223813 59 249 3.5 7.0 0.00 0.00 0.00 34 1017.2
20260503223311 60 282 6.1 13.0 0.00 0.00 0.00 35 1017.3
20260503222806 60 300 2.6 5.2 0.00 0.00 0.00 36 1017.1
20260503222305 60 216 0.9 5.2 0.00 0.00 0.00 37 1017.3
20260503221802 60 10 1.7 6.1 0.00 0.00 0.00 34 1017.1
20260503221300 60 227 1.7 5.2 0.00 0.00 0.00 34 1017.1
20260503220756 60 167 0.9 2.6 0.00 0.00 0.00 40 1017.1
20260503220254 60 267 1.7 7.0 0.00 0.00 0.00 35 1017.0
20260503215750 60 231 4.3 5.2 0.00 0.00 0.00 35 1017.1
20260503215247 61 243 1.7 2.6 0.00 0.00 0.00 38 1016.8
20260503214745 59 246 2.6 7.0 0.00 0.00 0.00 37 1016.6
20260503214242 59 228 3.5 6.1 0.00 0.00 0.00 35 1016.9
20260503213740 59 257 3.5 8.7 0.00 0.00 0.00 36 1016.7
20260503213237 60 268 2.6 8.7 0.00 0.00 0.00 36 1016.4
20260503212734 60 293 3.5 7.8 0.00 0.00 0.00 36 1016.6
20260503212232 60 286 4.3 5.2 0.00 0.00 0.00 33 1016.7
20260503211729 60 286 4.3 5.2 0.00 0.00 0.00 36 1016.6
20260503211225 60 236 3.5 5.2 0.00 0.00 0.00 37 1016.7
20260503210721 61 288 1.7 3.5 0.00 0.00 0.00 33 1016.6
20260503210218 60 267 2.6 3.5 0.00 0.00 0.00 34 1016.5
20260503205713 59 196 1.7 3.5 0.00 0.00 0.00 35 1016.9
20260503205210 60 266 7.0 8.7 0.00 0.00 0.00 33 1016.8
20260503204706 60 277 5.2 8.7 0.00 0.00 0.00 36 1016.9
20260503204204 59 289 3.5 7.8 0.00 0.00 0.00 33 1016.8
20260503203701 60 280 4.3 6.1 0.00 0.00 0.00 36 1016.8
20260503203159 60 304 4.3 12.2 0.00 0.00 0.00 38 1017.0
20260503202655 60 249 1.7 5.2 0.00 0.00 0.00 38 1017.0
20260503202154 60 216 3.5 3.5 0.00 0.00 0.00 37 1017.0
20260503201651 58 244 0.9 3.5 0.00 0.00 0.00 42 1017.0
20260503201149 60 266 2.6 6.1 0.00 0.00 0.00 38 1017.2
20260503200644 58 266 3.5 8.7 0.00 0.00 0.00 42 1017.2
20260503200141 61 289 1.7 3.5 0.00 0.00 0.00 35 1017.4
20260503195638 61 18 1.7 5.2 0.00 0.00 0.00 39 1017.4
20260503195135 59 284 1.7 5.2 0.00 0.00 0.00 45 1017.7
20260503194632 59 280 5.2 8.7 0.00 0.00 0.00 39 1017.6
20260503194127 59 289 4.3 7.0 0.00 0.00 0.00 36 1017.8
20260503193625 58 279 2.6 5.2 0.00 0.00 0.00 38 1017.9
20260503193120 58 236 1.7 3.5 0.00 0.00 0.00 37 1018.0
20260503192616 58 106 1.7 6.1 0.00 0.00 0.00 37 1018.0
20260503192112 59 260 5.2 9.6 0.00 0.00 0.00 38 1018.2
20260503191609 58 296 4.3 6.1 0.00 0.00 0.00 34 1017.9
20260503191106 59 277 7.0 9.6 0.00 0.00 0.00 36 1018.2
20260503190603 59 242 3.5 6.1 0.00 0.00 0.00 35 1018.1
20260503190100 59 282 6.1 9.6 0.00 0.00 0.00 36 1018.4
20260503185556 59 290 7.0 12.2 0.00 0.00 0.00 38 1018.3
20260503185056 60 239 0.0 2.6 0.00 0.00 0.00 38 1018.1
20260503184552 57 257 5.2 7.0 0.00 0.00 0.00 36 1018.4
20260503184049 56 292 2.6 6.1 0.00 0.00 0.00 45 1018.4
20260503183545 55 259 2.6 6.1 0.00 0.00 0.00 40 1018.4
20260503183043 56 273 5.2 9.6 0.00 0.00 0.00 39 1018.5
20260503182541 58 279 0.0 8.7 0.00 0.00 0.00 48 1018.6
20260503182039 56 273 7.0 9.6 0.00 0.00 0.00 42 1018.3
20260503181535 56 224 1.7 7.0 0.00 0.00 0.00 38 1018.7
20260503181031 56 307 3.5 6.1 0.00 0.00 0.00 37 1018.8
20260503180529 57 236 5.2 8.7 0.00 0.00 0.00 36 1018.7
20260503180026 56 133 0.0 3.5 0.00 0.00 0.00 40 1018.7
20260503175524 56 281 2.6 6.1 0.00 0.00 0.00 42 1019.0
20260503175020 56 251 3.5 3.5 0.00 0.00 0.00 38 1019.1
20260503174518 56 296 4.3 7.8 0.00 0.00 0.00 40 1019.0
20260503174014 57 281 3.5 3.5 0.00 0.00 0.00 41 1019.1
20260503173509 55 279 6.1 7.8 0.00 0.00 0.00 42 1019.1
20260503173006 55 302 4.3 7.0 0.00 0.00 0.00 43 1019.2
20260503172504 55 270 2.6 7.8 0.00 0.00 0.00 48 1019.2
20260503172001 53 227 0.9 2.6 0.00 0.00 0.00 43 1019.4
20260503171456 53 291 5.2 11.3 0.00 0.00 0.00 43 1019.3
20260503170954 54 178 3.5 7.0 0.00 0.00 0.00 42 1019.5
20260503170450 53 213 3.5 7.0 0.00 0.00 0.00 41 1019.7
20260503150843 49 287 7.8 11.3 0.00 0.00 0.00 42 1020.4
20260503150338 49 284 2.6 8.7 0.00 0.00 0.00 47 1020.7
20260503140303 47 236 4.3 8.7 0.00 0.00 0.00 59 1020.6
20260503131232 44 279 1.7 2.6 0.00 0.00 0.00 71 1020.5
20260503130730 43 300 1.7 2.6 0.00 0.00 0.00 72 1020.6
20260503130227 43 252 3.5 3.5 0.00 0.00 0.00 73 1020.6
20260503120153 38 258 0.0 2.6 0.00 0.00 0.00 87 1020.2